Time,TemperatureF,DewpointF,PressureIn,WindDirection,WindDirectionDegrees,WindSpeedMPH,WindSpeedGustMPH,Humidity,HourlyPrecipIn,Conditions,Clouds,dailyrainin,SoftwareType,DateUTC
2013-05-04 00:00:00,56.2,37.3,30.22,NE,42,0.0,3.0,49,0.00,,,0.00,Wunderground v.1.13,2013-05-04 04:00:00,
2013-05-04 00:30:00,54.7,41.1,30.22,NE,42,0.0,3.0,60,0.00,,,0.00,Wunderground v.1.13,2013-05-04 04:30:00,
2013-05-04 01:00:00,53.8,41.1,30.22,NE,42,0.0,3.0,62,0.00,,,0.00,Wunderground v.1.13,2013-05-04 05:00:00,
2013-05-04 01:30:00,52.8,38.4,30.22,NE,42,0.0,3.0,58,0.00,,,0.00,Wunderground v.1.13,2013-05-04 05:30:00,
2013-05-04 02:00:00,52.0,40.6,30.22,NE,42,0.0,3.0,65,0.00,,,0.00,Wunderground v.1.13,2013-05-04 06:00:00,
2013-05-04 02:30:00,51.0,41.9,30.22,NE,42,0.0,3.0,71,0.00,,,0.00,Wunderground v.1.13,2013-05-04 06:30:00,
2013-05-04 03:00:00,50.1,42.1,30.22,NE,42,0.0,3.0,74,0.00,,,0.00,Wunderground v.1.13,2013-05-04 07:00:00,
2013-05-04 03:30:00,49.4,40.4,30.22,NE,42,0.0,3.0,71,0.00,,,0.00,Wunderground v.1.13,2013-05-04 07:30:00,
2013-05-04 04:00:00,48.8,41.9,30.22,NE,42,0.0,3.0,77,0.00,,,0.00,Wunderground v.1.13,2013-05-04 08:00:00,
2013-05-04 04:30:00,47.9,39.7,30.22,NE,42,0.0,3.0,73,0.00,,,0.00,Wunderground v.1.13,2013-05-04 08:30:00,
2013-05-04 05:00:00,46.7,38.9,30.22,NE,42,0.0,3.0,74,0.00,,,0.00,Wunderground v.1.13,2013-05-04 09:00:00,
2013-05-04 05:30:00,46.5,41.3,30.23,NE,42,0.0,3.0,82,0.00,,,0.00,Wunderground v.1.13,2013-05-04 09:30:00,
2013-05-04 06:00:00,45.8,40.3,30.23,NE,42,0.0,3.0,81,0.00,,,0.00,Wunderground v.1.13,2013-05-04 10:00:00,
2013-05-04 06:30:00,46.0,40.2,30.24,NE,42,0.0,3.0,80,0.00,,,0.00,Wunderground v.1.13,2013-05-04 10:30:00,
2013-05-04 07:00:00,47.6,40.7,30.24,NE,42,0.0,3.0,77,0.00,,,0.00,Wunderground v.1.13,2013-05-04 11:00:00,
2013-05-04 07:30:00,53.8,40.7,30.25,NE,42,0.0,3.0,61,0.00,,,0.00,Wunderground v.1.13,2013-05-04 11:30:00,
2013-05-04 08:00:00,59.3,41.7,30.25,NE,42,0.0,1.0,52,0.00,,,0.00,Wunderground v.1.13,2013-05-04 12:00:00,
2013-05-04 08:30:00,61.6,40.0,30.25,NE,42,0.0,1.0,45,0.00,,,0.00,Wunderground v.1.13,2013-05-04 12:30:00,
2013-05-04 09:00:00,63.7,39.5,30.25,NE,42,0.0,1.0,41,0.00,,,0.00,Wunderground v.1.13,2013-05-04 13:00:00,
2013-05-04 09:30:00,65.8,36.6,30.25,SW,225,3.0,7.0,34,0.00,,,0.00,Wunderground v.1.13,2013-05-04 13:30:00,
2013-05-04 10:00:00,68.3,34.8,30.24,SW,217,2.0,3.0,29,0.00,,,0.00,Wunderground v.1.13,2013-05-04 14:00:00,
2013-05-04 10:30:00,70.4,34.8,30.23,SW,222,1.0,1.0,27,0.00,,,0.00,Wunderground v.1.13,2013-05-04 14:30:00,
2013-05-04 11:00:00,70.6,36.8,30.23,SW,235,2.0,2.0,29,0.00,,,0.00,Wunderground v.1.13,2013-05-04 15:00:00,
2013-05-04 11:30:00,70.6,38.5,30.22,West,261,1.0,3.0,31,0.00,,,0.00,Wunderground v.1.13,2013-05-04 15:30:00,
2013-05-04 12:00:00,71.8,36.9,30.22,West,261,2.0,2.0,28,0.00,,,0.00,Wunderground v.1.13,2013-05-04 16:00:00,
2013-05-04 12:30:00,73.2,36.2,30.20,NW,315,1.0,7.0,26,0.00,,,0.00,Wunderground v.1.13,2013-05-04 16:30:00,
2013-05-04 14:00:00,74.4,38.2,30.16,North,0,3.0,10.0,27,0.00,,,0.00,Wunderground v.1.13,2013-05-04 18:00:00,
2013-05-04 14:30:00,75.3,37.0,30.14,North,0,2.0,7.0,25,0.00,,,0.00,Wunderground v.1.13,2013-05-04 18:30:00,
2013-05-04 15:00:00,75.3,36.0,30.13,North,0,2.0,7.0,24,0.00,,,0.00,Wunderground v.1.13,2013-05-04 19:00:00,
2013-05-04 15:30:00,75.8,35.3,30.12,North,0,2.0,9.0,23,0.00,,,0.00,Wunderground v.1.13,2013-05-04 19:30:00,
2013-05-04 16:00:00,76.3,35.8,30.11,North,0,2.0,10.0,23,0.00,,,0.00,Wunderground v.1.13,2013-05-04 20:00:00,
2013-05-04 16:30:00,76.1,36.7,30.11,North,0,2.0,7.0,24,0.00,,,0.00,Wunderground v.1.13,2013-05-04 20:30:00,
2013-05-04 17:00:00,76.1,35.6,30.10,North,0,2.0,6.0,23,0.00,,,0.00,Wunderground v.1.13,2013-05-04 21:00:00,
2013-05-04 17:30:00,75.6,36.2,30.10,NNE,23,2.0,8.0,24,0.00,,,0.00,Wunderground v.1.13,2013-05-04 21:30:00,
2013-05-04 18:00:00,75.6,36.2,30.09,NNE,23,0.0,4.0,24,0.00,,,0.00,Wunderground v.1.13,2013-05-04 22:00:00,
2013-05-04 18:30:00,74.4,38.2,30.09,NNE,23,2.0,6.0,27,0.00,,,0.00,Wunderground v.1.13,2013-05-04 22:30:00,
2013-05-04 19:00:00,72.8,39.5,30.09,NNE,23,0.0,4.0,30,0.00,,,0.00,Wunderground v.1.13,2013-05-04 23:00:00,
2013-05-04 19:30:00,69.6,42.2,30.10,NNE,23,0.0,1.0,37,0.00,,,0.00,Wunderground v.1.13,2013-05-04 23:30:00,
2013-05-04 20:00:00,66.1,48.0,30.10,N/A,-737280,0.0,0.0,52,0.00,,,0.00,Wunderground v.1.13,2013-05-05 00:00:00,
2013-05-04 20:30:00,63.2,48.2,30.11,N/A,-737280,0.0,0.0,58,0.00,,,0.00,Wunderground v.1.13,2013-05-05 00:30:00,
2013-05-04 21:00:00,61.6,48.4,30.11,N/A,-737280,0.0,0.0,62,0.00,,,0.00,Wunderground v.1.13,2013-05-05 01:00:00,
2013-05-04 21:30:00,60.2,50.0,30.11,N/A,-737280,0.0,0.0,69,0.00,,,0.00,Wunderground v.1.13,2013-05-05 01:30:00,
2013-05-04 22:00:00,58.7,47.8,30.11,N/A,-737280,0.0,0.0,67,0.00,,,0.00,Wunderground v.1.13,2013-05-05 02:00:00,
2013-05-04 22:30:00,57.6,48.6,30.11,N/A,-737280,0.0,0.0,72,0.00,,,0.00,Wunderground v.1.13,2013-05-05 02:30:00,
2013-05-04 23:00:00,56.7,47.0,30.11,N/A,-737280,0.0,0.0,70,0.00,,,0.00,Wunderground v.1.13,2013-05-05 03:00:00,
2013-05-04 23:30:00,55.6,44.0,30.10,N/A,-737280,0.0,0.0,65,0.00,,,0.00,Wunderground v.1.13,2013-05-05 03:30:00,